This demonstration page uses our WeatherBlox Daily Observations layout. Learn more.

Left ArrowRight Arrow

39.92423, -83.80882

Hourly Observations for January 10, 2015

Temp ( °F °C ) Dew Point ( °F °C ) Humidity (%) Winds ( mph kmh ) Pressure ( in mb ) Visibility ( mi km ) Precip ( " mm )
12:56 am 00:56 Clear 2 -16.6 -5 -20.5 72 72 W 12 19 30.53 1034 10 16 0.00 0.00
1:56 am 01:56 Clear 1 -17.2 -6 -21.1 72 72 WSW 9 15 30.55 1035 10 16 0.00 0.00
2:56 am 02:56 Clear 0 -17.7 -7 -21.6 72 72 SW 9 15 30.56 1035 9 14 0.00 0.00
3:56 am 03:56 Clear -1 -18.3 -7 -21.6 75 75 SW 9 15 30.57 1035 9 14 0.00 0.00
4:56 am 04:56 Clear -3 -19.4 -8 -22.2 79 79 SSW 8 13 30.57 1035 9 14 0.00 0.00
5:56 am 05:56 Clear -3 -19.4 -8 -22.2 79 79 SSW 8 13 30.57 1035 9 14 0.00 0.00
6:56 am 06:56 Clear -3 -19.4 -8 -22.2 79 79 SSW 7 11 30.58 1036 9 14 0.00 0.00
7:56 am 07:56 Clear -3 -19.4 -8 -22.2 79 79 SSW 7 11 30.60 1036 8 13 0.00 0.00
8:56 am 08:56 Sunny -1 -18.3 -7 -21.6 75 75 SSW 8 13 30.60 1036 8 13 0.00 0.00
9:56 am 09:56 Sunny 4 -15.5 -4 -20 69 69 SW 8 13 30.63 1037 8 13 0.00 0.00
10:56 am 10:56 Sunny 7 -13.8 -3 -19.4 63 63 SSW 9 15 30.61 1037 8 13 0.00 0.00
11:56 am 11:56 Sunny 10 -12.2 -2 -18.8 58 58 SSW 10 17 30.60 1036 8 13 0.00 0.00
12:56 pm 12:56 Sunny 13 -10.5 -1 -18.3 53 53 S 7 11 30.56 1035 9 14 0.00 0.00
1:56 pm 13:56 Sunny 15 -9.4 0 -17.7 51 51 SSW 12 19 30.55 1034 9 14 0.00 0.00
2:56 pm 14:56 Sunny 17 -8.3 0 -17.7 47 47 SW 13 20 30.52 1034 9 14 0.00 0.00
3:56 pm 15:56 Sunny 18 -7.7 0 -17.7 45 45 SW 12 19 30.53 1034 9 14 0.00 0.00
4:56 pm 16:56 Sunny 18 -7.7 0 -17.7 45 45 SSW 7 11 30.53 1034 9 14 0.00 0.00
5:56 pm 17:56 Clear 16 -8.8 -2 -18.8 45 45 S 3 6 30.53 1034 10 16 0.00 0.00
6:56 pm 18:56 Clear 12 -11.1 -2 -18.8 53 53 undefined N/A 30.52 1034 10 16 0.00 0.00
7:56 pm 19:56 Clear 15 -9.4 1 -17.2 53 53 S 6 9 30.53 1034 10 16 0.00 0.00
8:56 pm 20:56 Clear 17 -8.3 2 -16.6 52 52 S 7 11 30.53 1034 10 16 0.00 0.00
9:56 pm 21:56 Clear 18 -7.7 4 -15.5 54 54 S 9 15 30.50 1033 10 16 0.00 0.00
10:56 pm 22:56 Cloudy 19 -7.2 5 -15 54 54 S 10 17 30.49 1033 10 16 0.00 0.00
11:56 pm 23:56 Cloudy 20 -6.6 5 -15 52 52 S 6 9 30.49 1032 10 16 0.00 0.00

Powered by AerisWeather